Regional Weather Roundup
Issued by NWS

Home | Current Version | Previous Version | Graphics & Text | Print | Product List | Glossary On
Versions: 1 2 3 4 5 6 7 8 9 10 11 12 13 14 15 16 17 18 19 20 21 22 23 24 25 26 27 28 29 30 31 32 33 34 35 36 37 38 39 40 41 42 43 44 45 46 47 48 49 50
000
ASUS45 KBOU 210807
RWRCO

WEATHER ROUNDUP FOR COLORADO
NATIONAL WEATHER SERVICE DENVER/BOULDER CO
200 AM MDT THU AUG 21 2014

NOTE: "FAIR" INDICATES FEW OR NO CLOUDS BELOW 12000 FEET WITH NO
SIGNIFICANT WEATHER AND/OR OBSTRUCTIONS TO VISIBILITY.

COZ001>005-013-030-031-210900-
...NORTHWEST COLORADO...

CITY           SKY/WX    TMP DP  RH WIND       PRES   REMARKS
CRAIG          MOCLDY    55  51  86 VRB3      30.17S
HAYDEN         MOCLDY    52  46  82 S5        30.19R
MEEKER         LGT RAIN  56  52  86 CALM      30.18R
MOUNT WERNER   NOT AVBL
STEAMBOAT SPGS MOCLDY    49  46  92 NW3       30.20S
WALDEN         MOCLDY    46  43  87 SE8       30.24F
$$

COZ006>008-011-210900-
...WEST CENTRAL VALLEYS...

CITY           SKY/WX    TMP DP  RH WIND       PRES   REMARKS
GRAND JUNCTION PTCLDY    58  52  80 CALM      30.10R
MONTROSE       CLEAR     60  49  66 CALM      30.18R
EAGLE          MOCLDY    54  52  94 CALM      30.23S
RIFLE          CLOUDY    61  49  64 E8        30.14R
DELTA          NOT AVBL
NUCLA          CLEAR     55  48  76 SE6       30.21F
$$

COZ017>023-064>068-210900-
...SOUTHWEST COLORADO...

CITY           SKY/WX    TMP DP  RH WIND       PRES   REMARKS
DURANGO        CLEAR     55  40  56 CALM      30.19S
CORTEZ         CLEAR     52  46  80 E3        30.18S
PAGOSA SPRINGS CLEAR     49  39  67 CALM      30.26F
TELLURIDE      CLEAR     48  45  87 SE3       30.38S
WOLF CREEK PAS NOT AVBL
$$

COZ009-010-012-014-032>034-037-058>063-210900-
...CENTRAL COLORADO...

CITY           SKY/WX    TMP DP  RH WIND       PRES   REMARKS
ASPEN          MOCLDY    49  43  80 CALM      30.27S
BUENA VISTA    MOCLDY    62  37  39 W13       30.24S
COPPER MTN     PTCLDY    45  37  76 CALM      30.51F
BERTHOUD PASS  FAIR      36  34  93 W16G22    30.53S
COTTONWOOD PAS PTCLDY    55  36  47 W16G24    30.37R
GUNNISON       CLEAR     48  36  61 N3        30.30S
KREMMLING      MOCLDY    52  46  82 E5        30.26S
LEADVILLE      PTCLDY    44  38  79 CALM      30.37F
MONARCH PASS   CLEAR     41  36  81 W20       30.61S
SALIDA         CLOUDY    65  40  40 SW13G18   30.28S
SUNLIGHT       CLOUDY    43  43 100 CALM      30.45S
WILKERSON PASS CLOUDY    46  41  81 SW3       30.48F
$$

COZ069>075-210900-
...SAN LUIS VALLEY/SANGRE DE CRISTO MOUNTAINS...

CITY           SKY/WX    TMP DP  RH WIND       PRES   REMARKS
ALAMOSA        CLEAR     50  40  68 CALM      30.22S
LA VETA PASS   NOT AVBL
SAGUACHE       NOT AVBL
$$

COZ035-036-038>040-210900-
...NORTHERN COLORADO FRONT RANGE...

CITY           SKY/WX    TMP DP  RH WIND       PRES   REMARKS
DENVER INTL AP CLOUDY    64  58  80 W6        30.06R
DMNS CITY PARK   N/A     63  58  81 SW5       30.06S
AURORA         MOCLDY    63  55  77 SW6       30.08R
FRONT RANGE AP NOT AVBL
ERIE MUNI ARPT MOCLDY    65  56  74 S3        30.04S
BOULDER MUN AP MOCLDY    63  54  72 CALM      30.05R
CENTENNIAL     MOCLDY    62  54  74 S6        30.09R
BROOMFIELD     MOCLDY    63  55  77 SW3       30.08S
FORT COLLINS   CLOUDY    64  54  68 SE6       30.04F
LONGMONT       CLOUDY    64  57  77 N3        30.06S
$$

COZ041-046-047-076>085-087-088-210900-
...PIKES PEAK/PALMER DIVIDE AND SOUTHERN FOOTHILLS...

CITY           SKY/WX    TMP DP  RH WIND       PRES   REMARKS
COLO. SPRINGS  MOCLDY    64  49  57 NW13      30.10R
A. F. ACADEMY  PTCLDY    59  50  71 N12       30.13S
ELLICOTT       PTCLDY    61  55  81 N13       30.06S
FALCON         MOCLDY    59  50  71 N14       30.14S
FORT CARSON    PTCLDY    67  49  54 N14       30.06R
LIMON          LGT RAIN  61  58  90 N20       30.02F
MONUMENT HILL  PTCLDY    52  50  93 W6        30.15S
TRINIDAD       CLEAR     65  45  48 NW10      30.03S
$$

COZ042>045-048>051-090-091-210900-
...NORTHEAST COLORADO...

CITY           SKY/WX    TMP DP  RH WIND       PRES   REMARKS
GREELEY ARPT   MOCLDY    63  54  72 SW3       30.03R
AKRON          LGT RAIN  63  58  83 NW9       29.99R
BURLINGTON     CLEAR     64  56  75 NW10      29.92F
WRAY             N/A     70  57  63 NW13      29.89F
STERLING       CLOUDY    68  61  77 CALM      29.94F
HOLYOKE        NOT AVBL
FORT MORGAN    CLOUDY    64  56  74 CALM      30.00S
$$

COZ086-089-092>099-210900-
...SOUTHEAST COLORADO...

CITY           SKY/WX    TMP DP  RH WIND       PRES   REMARKS
PUEBLO         CLEAR     70  53  54 N18       29.97R
LA JUNTA       CLEAR     67  53  61 N12       29.90R
LAMAR          PTCLDY    72  54  53 NW3       29.83S
SPRINGFIELD      N/A     73  59  61 S12       29.92F
$$


USA.gov is the U.S. government's official web portal to all federal, state and local government web resources and services.